Vorticity
12 13 13 14 14 15 16 16 16 15 15 15 15 15 15 16 16 15 14 14 13 11 12 12 8 9 12 10 10 10 9 8 9 8 8 8 9 8 9 9 9 10 10 9 11 12 12 12 12 12 11 11 11 10 10 9 8 8 8 9 9 9 8 8 8 8 8 8 8 8 7 6 6 6 6 7 7 6 6 6 6 6 6 6 5 5
12 12 13 14 14 14 14 14 14 14 13 13 12 12 11 11 11 9 9 9 8 7 8 7 5 8 10 7 8 9 9 9 8 8 8 9 9 10 9 9 8 9 8 8 9 8 8 9 9 8 9 9 9 8 8 8 8 9 9 9 9 8 8 8 8 8 9 9 9 8 8 7 7 7 7 7 7 7 7 8 7 8 8 8 8 9
9 8 8 8 8 9 8 9 9 9 10 9 8 8 9 9 8 9 8 7 8 7 6 7 7 8 9 8 9 9 10 11 9 8 10 10 10 10 10 10 11 12 12 11 11 10 10 10 9 10 10 9 9 9 10 11 11 11 11 10 10 10 11 11 12 12 12 11 10 10 10 10 10 10 10 10 10 10 10 10 9 9 10 9 10 10
8 8 9 8 8 9 9 9 9 9 9 8 7 8 8 7 6 6 6 6 6 6 5 6 4 4 10 11 9 7 6 6 7 7 7 7 6 6 7 9 10 11 12 12 11 11 10 11 11 10 9 9 9 10 11 11 11 11 11 12 12 13 13 13 13 13 12 12 12 12 13 12 12 12 11 11 11 11 10 10 10 10 10 10 11 11
10 11 12 11 10 10 10 9 8 7 6 6 6 7 6 5 5 5 6 6 7 9 10 10 8 10 15 15 11 10 11 10 11 9 8 8 7 6 6 6 6 7 7 7 7 7 8 10 10 9 9 9 9 10 10 9 9 11 12 12 12 12 13 14 14 14 14 15 15 15 14 14 13 13 12 12 12 11 11 11 11 11 11 11 11 11
9 10 9 7 7 7 7 6 6 6 6 7 8 8 7 8 8 8 8 8 9 11 11 12 15 15 16 17 13 13 17 17 16 15 14 13 12 12 11 8 7 6 5 5 6 7 9 10 9 9 10 11 11 12 10 10 11 11 10 10 11 11 10 11 11 11 11 11 11 11 12 12 11 11 11 11 11 10 11 11 10 10 9 9 9 9
6 7 6 5 7 7 7 7 7 8 9 10 10 9 9 8 8 8 7 8 8 7 8 9 10 10 8 10 11 11 16 15 12 14 14 15 16 16 17 16 15 15 13 13 12 12 13 12 12 13 14 15 14 13 11 11 11 9 8 8 8 8 8 7 7 7 7 6 6 6 6 7 7 8 9 8 8 8 9 9 8 8 7 7 7 7
6 7 8 8 9 9 9 8 9 9 9 8 8 7 7 6 6 6 6 7 5 4 10 10 5 5 4 6 9 9 12 9 6 8 9 11 13 13 16 16 16 17 17 17 15 14 12 10 11 13 15 15 13 12 11 10 8 8 8 8 7 7 7 8 7 6 7 7 8 7 6 6 6 7 7 7 7 7 8 8 7 7 6 6 6 6
7 9 11 10 9 10 8 8 8 7 7 7 6 5 6 4 4 6 5 5 2 3 12 9 1 3 6 8 9 6 8 7 3 5 8 10 9 9 11 12 15 17 18 19 18 16 14 11 11 11 13 16 17 15 8 2 2 6 9 8 7 7 6 7 6 5 6 6 7 7 6 7 7 6 6 6 8 8 8 8 7 7 7 7 7 6
8 10 11 8 8 8 6 6 7 5 6 6 4 4 4 2 5 7 3 2 2 4 9 4 0 5 8 10 8 4 7 6 3 6 9 9 7 5 8 12 14 12 11 13 14 15 15 14 13 14 16 17 16 12 3 -2 2 6 8 7 7 7 6 6 6 6 5 4 5 5 6 6 5 5 5 5 6 7 7 7 7 7 7 7 7 7
8 9 8 6 6 6 5 5 5 4 5 4 2 3 1 1 6 4 1 2 2 2 4 3 4 4 3 7 10 9 8 5 4 8 9 7 5 1 5 12 11 4 2 5 8 9 10 11 12 12 14 12 8 5 1 2 5 6 6 6 5 5 5 6 6 6 6 5 5 5 5 5 5 5 5 5 6 6 5 5 6 6 6 7 7 7
8 6 5 6 4 4 5 3 3 2 3 3 2 1 0 2 5 2 1 2 -0 0 4 4 3 2 2 7 13 10 5 3 5 8 9 6 5 2 3 8 7 2 0 1 4 6 5 8 10 10 11 11 9 7 6 6 6 7 7 7 7 7 7 7 7 6 6 6 6 6 6 5 5 4 5 6 6 5 5 5 5 5 5 5 5 6
8 5 4 4 2 4 3 1 3 2 0 2 2 2 2 2 2 1 2 0 -1 1 3 3 1 1 3 7 11 4 -2 6 9 7 7 5 5 6 4 4 4 3 1 -0 2 4 3 3 6 8 9 9 9 9 8 7 7 8 8 8 9 10 10 9 8 8 7 6 6 6 5 5 5 4 5 6 6 5 5 4 4 5 5 4 4 5
7 5 3 2 2 4 1 -1 3 1 -1 1 3 3 1 2 2 0 -0 -1 -1 3 4 3 -1 -1 3 4 4 -2 -0 13 12 3 4 5 7 7 4 5 8 6 4 2 3 4 4 3 3 4 6 5 6 6 6 7 7 8 8 9 9 9 8 7 8 8 7 8 8 7 7 6 5 5 5 6 6 5 5 5 4 4 4 4 4 5
3 4 4 2 2 1 0 2 3 1 0 1 3 2 0 6 4 -5 -4 -1 1 2 2 0 -3 -2 0 -1 -1 2 8 15 9 3 4 6 7 4 3 9 11 6 2 1 2 2 3 4 3 2 3 3 4 3 4 6 6 6 7 7 8 8 8 7 7 7 7 9 8 7 6 6 5 6 6 6 6 6 5 5 4 3 4 5 4 4
0 4 6 2 2 2 2 4 2 1 2 0 2 2 1 5 1 -5 -1 3 2 0 -0 1 -1 -3 -2 -0 4 9 9 9 10 10 6 2 4 3 6 11 8 3 0 -0 1 2 3 4 3 2 1 2 3 2 3 3 4 6 5 4 5 6 8 8 8 8 8 8 7 6 6 6 6 6 6 7 6 6 5 4 4 4 5 5 4 4
-2 2 6 3 1 3 4 2 2 3 3 1 3 3 2 2 1 1 1 2 3 0 -2 1 -1 -3 1 3 5 9 9 10 12 9 0 -0 7 11 10 8 3 3 2 0 2 3 5 6 4 2 1 3 5 4 2 1 1 3 4 4 4 4 6 7 6 6 7 8 8 9 8 8 7 7 6 6 6 5 5 5 5 5 5 4 4 4
-2 -1 5 6 2 3 5 2 2 4 5 4 4 3 2 2 3 5 3 4 7 2 -1 1 -1 -1 1 -2 1 9 11 8 6 2 1 6 13 14 10 4 1 3 3 2 3 3 5 7 5 2 2 3 5 5 4 3 2 2 4 6 5 3 4 5 4 5 6 7 7 7 8 8 8 8 7 6 6 6 6 5 5 5 5 5 4 4
-0 -3 2 6 4 3 3 2 3 5 5 4 2 2 4 4 5 7 7 6 7 4 3 2 -1 -0 3 0 1 7 7 5 6 8 10 11 10 9 7 4 2 1 1 1 1 1 2 5 5 3 2 3 5 6 6 5 4 3 3 4 4 4 5 5 5 5 5 6 5 6 7 7 7 7 8 8 7 7 6 6 6 6 6 5 5 4
5 1 -1 3 4 1 1 4 5 4 2 1 3 4 5 6 7 8 7 5 7 9 6 4 1 -0 3 3 1 5 8 8 8 8 7 7 8 7 6 4 2 1 0 1 0 -0 1 3 5 5 4 4 5 6 7 6 5 4 3 4 5 5 5 5 6 5 6 6 6 6 6 5 5 6 7 8 8 8 7 7 6 6 6 5 5 5
6 4 0 2 3 1 3 6 4 2 2 3 5 5 6 9 11 10 7 4 7 8 4 5 3 -2 2 6 6 9 9 4 3 5 6 6 6 5 5 5 4 2 0 1 1 1 1 2 4 5 6 6 6 6 5 5 4 4 5 6 5 4 3 6 7 7 6 4 4 6 6 5 6 5 6 8 9 9 8 7 7 6 6 6 5 5
6 6 4 4 4 4 4 3 1 2 3 3 4 5 7 8 7 7 7 7 8 5 2 4 1 -2 6 11 8 6 4 3 6 6 5 5 4 5 8 9 8 4 2 2 2 3 2 2 4 6 7 7 7 7 5 5 5 5 6 7 6 4 3 5 8 8 7 5 5 8 7 6 7 7 8 9 10 9 8 8 7 6 6 6 5 5
5 4 4 4 3 3 4 3 4 4 5 7 7 7 7 4 3 5 6 7 8 4 2 6 5 4 8 8 5 7 8 9 9 7 6 6 6 7 8 8 7 4 2 3 4 5 5 5 6 7 8 8 8 8 6 5 5 6 7 7 6 5 3 5 8 9 9 7 6 7 6 7 8 9 10 11 11 10 9 8 7 6 6 6 6 6
2 2 3 3 3 2 3 3 3 5 8 8 5 5 6 5 8 9 6 9 10 4 6 12 8 5 8 10 11 12 8 5 5 6 6 6 5 5 5 7 6 2 1 2 4 7 8 8 9 8 8 9 10 10 9 7 8 8 9 9 7 4 2 4 9 11 10 7 5 6 6 7 9 10 11 12 11 10 9 8 7 6 6 6 6 6
2 3 3 5 6 6 5 5 7 10 7 3 3 7 7 8 9 7 6 8 4 1 10 13 5 4 11 15 13 10 8 7 6 5 5 5 6 7 7 7 5 3 4 7 9 10 11 12 13 12 12 11 11 11 10 9 9 9 9 8 5 3 2 6 10 11 9 6 6 6 7 8 10 12 12 12 10 9 9 8 6 6 6 6 6 7
4 4 5 9 10 8 9 13 18 18 12 9 12 12 10 10 8 6 8 5 0 7 15 7 -0 10 17 12 8 8 9 10 9 9 9 9 7 6 6 6 5 6 9 11 11 13 14 14 13 11 10 11 10 10 10 10 11 10 8 6 4 2 4 9 12 12 9 8 7 5 6 9 12 13 12 10 9 8 8 8 7 7 7 6 7 9
7 5 7 10 8 5 6 9 11 10 8 9 10 9 9 9 8 8 7 3 8 17 13 2 8 23 22 10 5 6 7 8 10 10 11 9 8 8 9 10 14 17 17 16 16 14 12 8 5 6 8 10 10 10 10 10 9 7 6 5 5 7 10 13 15 14 12 9 6 5 8 12 15 14 12 11 11 10 10 10 9 7 7 8 10 12
7 5 8 10 6 4 6 8 8 6 5 7 11 11 10 8 9 10 9 10 16 15 7 9 15 11 6 6 9 11 13 13 13 16 17 16 15 16 17 18 18 18 15 13 10 6 3 1 4 8 11 12 13 12 9 6 5 6 8 10 12 14 15 15 13 11 8 6 6 9 12 15 16 14 13 12 11 11 10 10 9 8 8 11 15 16
6 7 12 11 7 7 10 12 13 10 9 13 14 10 9 12 14 14 12 13 14 9 10 19 17 7 8 15 16 17 19 19 18 19 18 18 17 15 12 10 6 4 3 3 4 6 9 12 14 14 13 13 11 7 5 7 10 13 14 13 12 10 9 8 7 7 7 7 8 11 14 15 15 14 13 11 11 11 11 9 8 9 12 16 19 17
10 11 14 12 10 12 15 14 12 10 12 13 9 6 10 14 15 15 16 16 15 14 17 22 22 22 25 26 25 25 24 24 23 20 16 16 17 16 14 13 14 15 16 17 18 20 21 20 18 16 14 11 7 6 11 17 18 16 13 10 7 6 6 7 9 11 10 9 9 12 14 15 13 12 10 10 11 11 10 9 11 14 18 20 18 15
14 13 14 13 10 12 16 16 12 12 14 14 12 12 14 14 14 16 16 15 13 11 10 10 11 10 8 12 18 20 19 20 20 18 17 17 18 20 21 22 23 23 22 22 21 19 18 17 15 13 11 10 13 18 20 16 10 6 5 7 8 9 10 12 13 10 6 6 10 14 15 14 12 11 11 12 13 12 12 14 18 19 18 17 15 15
15 14 16 17 13 12 18 21 20 19 18 18 20 22 22 21 21 19 18 18 18 17 15 14 14 13 10 10 10 9 10 12 12 13 14 14 15 17 16 15 15 15 15 15 14 14 13 12 10 10 12 15 17 15 7 -1 -0 5 10 13 14 14 15 13 8 3 3 9 14 16 16 15 14 15 15 16 17 17 18 19 19 18 17 16 16 16
16 16 18 19 17 16 21 24 23 23 23 23 23 25 25 25 23 24 26 26 24 23 21 19 17 17 18 14 9 6 5 6 8 11 12 11 12 13 12 12 12 12 12 12 11 12 11 11 12 12 12 9 3 -1 1 7 14 17 17 15 15 14 10 4 -0 2 10 16 17 17 17 17 18 17 18 19 19 19 19 18 18 17 15 14 13 10
18 19 19 20 22 26 30 28 24 25 28 27 24 24 24 23 22 22 22 20 20 20 18 17 16 15 14 13 12 10 9 9 9 7 6 7 8 9 9 10 10 10 11 13 13 13 12 12 10 6 4 5 7 11 18 20 18 16 14 13 12 7 1 -1 3 11 17 20 20 20 20 19 19 18 18 18 18 16 15 14 13 11 11 10 7 4
20 22 22 24 26 28 29 26 25 27 26 23 24 25 22 18 17 17 16 15 16 15 12 11 12 11 11 12 11 11 12 12 12 11 12 13 13 12 10 10 10 9 8 8 6 4 2 2 4 7 12 18 21 20 17 13 10 9 8 7 3 -0 1 8 16 20 22 22 21 20 18 17 16 16 16 16 15 13 11 9 8 7 7 5 3 4
20 21 21 21 19 19 20 21 24 25 20 21 26 24 17 13 14 14 13 13 14 15 17 21 20 16 13 11 10 10 9 8 10 12 12 11 11 10 9 8 8 7 6 6 5 5 5 8 12 15 15 11 4 -1 -2 -1 1 2 3 5 7 12 18 22 23 22 20 18 16 15 15 15 15 16 16 15 13 9 6 5 5 5 5 6 10 14
16 15 15 15 14 14 15 17 22 22 20 24 29 23 17 16 14 12 9 9 12 13 13 13 9 4 6 12 18 22 21 19 20 18 15 14 13 11 10 11 10 10 10 9 9 9 10 10 7 4 0 -4 -7 -5 1 5 7 9 12 15 18 20 20 17 16 14 13 11 12 12 12 13 15 17 16 13 9 6 6 7 8 9 12 15 15 13
16 13 13 13 13 13 11 10 15 17 17 24 29 27 27 24 18 14 10 6 7 7 3 4 6 6 10 14 12 8 5 6 7 5 0 -1 -2 -3 -3 -3 -3 -1 -0 -1 -1 -1 -2 -1 1 2 4 7 9 12 15 17 17 16 16 15 14 13 11 11 13 13 13 13 12 11 10 12 14 14 13 11 9 9 11 13 14 14 13 9 5 2
13 11 10 9 8 8 7 8 12 12 12 19 24 26 31 32 25 19 13 9 12 13 8 7 10 8 4 1 -5 -8 -7 -4 -2 -6 -11 -11 -9 -7 -4 -3 -3 -2 -1 -0 1 2 1 -1 -1 0 3 6 8 8 9 9 9 9 9 9 10 11 13 15 16 16 16 15 14 13 12 11 11 10 7 5 5 6 7 6 5 3 2 1 3 5
12 10 8 6 5 7 8 8 10 11 11 16 19 19 25 33 32 22 14 16 23 24 17 12 11 9 5 3 4 4 5 7 10 8 5 6 6 6 8 10 10 9 7 7 7 9 11 9 6 5 4 3 4 4 5 6 8 9 11 12 13 14 16 16 15 13 13 14 15 16 14 12 12 10 6 1 -1 -1 -0 -1 -1 -0 1 5 7 6
15 14 11 9 8 9 9 6 6 9 12 13 17 17 16 23 32 30 24 26 31 33 36 39 40 40 39 38 37 36 33 32 32 32 29 26 22 19 17 15 15 14 13 11 9 9 10 10 10 10 9 9 9 9 10 10 10 11 12 11 11 12 12 11 9 9 10 10 11 12 13 14 14 12 9 5 1 -0 -1 -0 1 3 5 7 7 6
17 15 11 9 8 6 7 7 7 10 12 9 13 19 16 15 22 26 23 21 20 20 24 28 28 30 33 34 36 39 40 40 40 41 43 44 44 43 40 37 35 34 32 31 30 27 24 20 18 16 14 13 11 9 7 6 6 6 6 5 6 6 6 7 7 7 6 7 7 8 10 12 13 13 12 10 6 5 5 6 8 10 12 14 14 12
15 15 11 10 10 7 8 10 8 9 13 10 10 16 18 16 16 17 17 18 16 13 11 12 12 12 13 15 15 16 18 20 21 23 25 28 31 35 39 41 41 39 38 39 41 41 41 41 41 40 38 36 32 28 24 19 14 10 7 5 5 5 5 6 6 5 5 6 6 8 9 10 12 13 14 13 11 9 7 6 7 9 12 16 17 14
13 12 10 11 12 10 10 10 8 9 14 13 9 8 11 15 15 11 11 14 14 11 9 8 8 7 7 9 10 11 12 13 14 15 15 15 15 16 21 28 33 33 32 30 30 33 37 41 43 44 44 44 45 45 44 43 41 37 32 27 22 17 15 13 11 10 10 10 10 10 11 11 12 12 13 13 13 12 10 8 6 6 8 14 16 12
10 10 10 9 9 11 10 8 7 10 12 13 11 6 6 13 16 14 15 16 13 11 10 9 9 9 9 8 8 8 10 10 11 13 14 14 13 11 11 16 24 29 29 26 24 24 26 29 31 32 32 33 35 36 38 41 44 46 46 45 43 39 36 32 28 25 22 20 17 16 14 14 13 13 14 14 14 14 14 13 13 11 10 13 14 9
9 10 10 9 8 10 10 7 6 10 13 13 10 4 4 11 14 15 20 23 19 13 9 6 7 8 8 9 10 12 16 17 17 16 15 15 16 14 11 11 16 24 26 25 22 19 18 18 19 21 23 24 26 29 30 32 34 36 38 40 41 41 40 38 36 33 29 27 24 21 20 19 19 19 18 17 17 17 17 17 18 15 11 11 10 7
12 11 9 9 9 9 9 7 6 11 17 15 6 2 7 12 11 11 16 21 24 21 13 7 7 7 9 12 15 17 20 22 21 20 18 18 17 17 13 9 13 21 25 22 20 19 20 19 18 18 22 24 24 23 23 23 25 26 26 27 29 31 32 32 32 31 29 28 27 26 25 24 23 22 21 21 21 21 20 18 16 13 12 11 7 4
12 11 9 9 11 10 8 6 6 11 19 16 4 1 7 9 9 11 13 16 22 24 20 11 5 6 12 16 17 18 19 20 22 21 20 19 19 18 16 10 11 18 23 21 20 22 24 25 24 23 23 23 21 19 18 19 20 20 20 20 21 22 23 24 25 26 27 27 26 25 24 23 22 21 21 22 22 21 19 17 15 14 13 8 4 7
11 12 9 8 11 11 8 5 3 6 15 16 7 5 7 6 6 9 11 13 17 21 21 13 6 10 17 16 12 13 15 19 22 21 19 19 19 18 16 10 8 16 23 24 23 23 25 29 29 27 23 19 16 14 15 16 18 19 19 19 19 19 20 21 21 21 21 21 20 19 18 18 18 17 17 18 18 17 16 15 14 12 10 10 14 21
11 12 10 7 9 10 8 7 5 5 11 13 10 9 9 7 7 8 10 12 14 17 18 13 8 13 17 12 7 9 12 20 26 24 21 21 19 18 17 9 7 18 29 27 23 21 24 27 27 23 18 14 11 12 13 15 16 18 18 18 19 19 19 21 22 22 21 19 18 17 17 18 18 19 19 18 16 14 11 10 11 14 18 23 25 23
11 12 10 7 8 10 9 10 9 8 10 11 9 9 10 9 8 9 10 11 12 15 17 14 11 14 15 10 8 7 8 17 27 28 25 22 19 19 15 6 9 26 33 25 19 20 22 23 22 17 13 11 11 11 12 13 13 14 16 17 20 21 20 18 18 19 20 20 20 20 19 18 17 16 14 12 11 11 13 16 20 23 23 21 17 13
Height
5743 5741 5739 5737 5736 5734 5733 5731 5729 5728 5726 5725 5724 5722 5721 5720 5719 5717 5715 5714 5712 5711 5710 5708 5706 5707 5705 5703 5701 5700 5698 5698 5698 5696 5695 5694 5693 5692 5691 5690 5689 5688 5687 5685 5684 5684 5683 5682 5681 5680 5680 5679 5679 5679 5678 5678 5677 5676 5675 5674 5674 5674 5673 5673 5673 5673 5672 5672 5672 5671 5670 5670 5669 5669 5668 5668 5667 5666 5665 5665 5664 5664 5663 5663 5663 5662
5741 5739 5738 5736 5735 5733 5731 5730 5728 5726 5725 5723 5722 5720 5719 5717 5716 5715 5713 5711 5709 5708 5707 5705 5703 5703 5701 5699 5698 5696 5695 5695 5694 5692 5691 5690 5689 5688 5687 5686 5685 5684 5683 5681 5680 5679 5678 5678 5677 5676 5675 5674 5673 5673 5672 5672 5671 5670 5670 5669 5669 5668 5668 5668 5668 5667 5667 5666 5666 5665 5664 5664 5663 5663 5662 5662 5661 5660 5660 5659 5658 5657 5657 5656 5655 5655
5740 5739 5737 5735 5734 5732 5730 5728 5727 5725 5723 5722 5720 5719 5717 5715 5714 5713 5711 5709 5707 5705 5704 5702 5701 5701 5698 5696 5695 5693 5692 5691 5689 5689 5688 5686 5685 5685 5684 5683 5682 5681 5679 5678 5676 5675 5674 5673 5672 5671 5671 5669 5668 5667 5667 5667 5666 5665 5665 5664 5664 5663 5663 5662 5662 5662 5661 5660 5659 5659 5658 5658 5657 5657 5656 5655 5655 5655 5654 5653 5652 5651 5651 5650 5649 5649
5739 5737 5736 5734 5732 5730 5729 5727 5725 5723 5722 5720 5718 5717 5715 5713 5712 5710 5708 5706 5704 5702 5701 5699 5698 5698 5696 5693 5692 5689 5689 5688 5685 5685 5684 5683 5682 5680 5679 5679 5678 5677 5675 5674 5672 5671 5670 5669 5668 5667 5666 5665 5665 5664 5663 5662 5661 5661 5660 5660 5659 5658 5658 5657 5657 5656 5655 5654 5653 5653 5653 5652 5651 5651 5650 5649 5649 5649 5648 5647 5646 5645 5644 5644 5643 5642
5738 5736 5734 5732 5730 5729 5727 5725 5723 5722 5720 5718 5716 5714 5712 5711 5709 5707 5706 5704 5702 5700 5698 5695 5694 5695 5694 5690 5689 5687 5685 5684 5682 5680 5680 5679 5678 5676 5675 5674 5673 5672 5671 5670 5669 5667 5666 5665 5663 5662 5662 5661 5661 5660 5659 5658 5657 5656 5656 5655 5654 5653 5653 5652 5651 5650 5649 5649 5648 5648 5647 5646 5646 5645 5644 5644 5643 5642 5641 5641 5640 5639 5638 5637 5637 5636
5736 5734 5733 5731 5729 5727 5725 5724 5722 5720 5718 5716 5714 5712 5710 5708 5706 5705 5703 5701 5700 5698 5697 5692 5689 5692 5692 5688 5685 5684 5682 5680 5678 5676 5675 5674 5673 5672 5671 5670 5668 5668 5667 5666 5665 5663 5662 5661 5660 5658 5657 5656 5656 5655 5654 5653 5653 5652 5651 5650 5649 5649 5648 5647 5646 5645 5644 5643 5643 5642 5642 5641 5640 5639 5639 5638 5637 5636 5636 5635 5634 5633 5632 5631 5630 5629
5735 5733 5731 5729 5727 5725 5724 5722 5720 5718 5716 5714 5712 5710 5708 5707 5704 5703 5701 5699 5697 5696 5695 5691 5686 5686 5689 5686 5682 5681 5680 5677 5675 5673 5672 5670 5669 5667 5666 5665 5664 5663 5663 5662 5661 5660 5659 5657 5656 5655 5653 5652 5651 5650 5649 5649 5649 5648 5646 5645 5644 5644 5643 5642 5641 5640 5639 5638 5638 5637 5637 5636 5635 5634 5634 5632 5631 5631 5630 5629 5628 5627 5626 5625 5624 5623
5733 5731 5730 5727 5725 5724 5722 5720 5718 5716 5714 5712 5710 5708 5706 5704 5702 5701 5698 5696 5694 5693 5693 5690 5684 5682 5684 5684 5680 5678 5678 5675 5673 5671 5669 5667 5665 5663 5662 5661 5660 5659 5658 5658 5657 5656 5655 5653 5652 5650 5649 5648 5647 5645 5645 5645 5644 5643 5642 5640 5639 5638 5637 5636 5635 5635 5634 5633 5632 5632 5631 5630 5630 5629 5628 5627 5626 5625 5625 5623 5622 5621 5620 5619 5618 5617
5731 5729 5727 5725 5724 5722 5720 5718 5716 5714 5712 5710 5708 5706 5704 5702 5700 5698 5695 5693 5691 5690 5690 5687 5683 5679 5679 5682 5678 5674 5674 5673 5671 5670 5667 5664 5662 5660 5659 5657 5656 5655 5654 5653 5652 5651 5650 5649 5648 5646 5645 5644 5642 5641 5641 5640 5639 5638 5637 5636 5634 5633 5632 5631 5630 5629 5629 5627 5626 5626 5625 5625 5624 5623 5622 5621 5620 5620 5619 5617 5616 5615 5614 5613 5612 5611
5729 5728 5725 5723 5722 5720 5718 5716 5714 5712 5710 5708 5706 5704 5701 5699 5697 5695 5692 5690 5687 5686 5687 5684 5681 5676 5675 5679 5677 5671 5670 5670 5668 5667 5664 5661 5659 5657 5656 5654 5652 5651 5649 5648 5647 5646 5645 5644 5643 5642 5641 5639 5638 5637 5636 5635 5634 5633 5632 5631 5630 5629 5627 5625 5624 5624 5623 5622 5621 5620 5619 5619 5618 5617 5615 5615 5614 5613 5612 5611 5610 5609 5608 5607 5606 5605
5727 5725 5723 5722 5720 5718 5716 5714 5712 5710 5708 5706 5703 5701 5698 5695 5694 5692 5689 5687 5683 5681 5683 5680 5677 5673 5670 5675 5676 5670 5667 5666 5664 5663 5660 5657 5656 5654 5652 5651 5649 5647 5646 5644 5643 5641 5640 5639 5638 5637 5636 5635 5633 5632 5631 5630 5629 5627 5626 5626 5625 5623 5622 5620 5619 5618 5617 5616 5615 5614 5613 5612 5611 5610 5609 5608 5608 5607 5605 5604 5603 5602 5601 5600 5599 5598
5725 5723 5721 5720 5717 5715 5714 5712 5710 5707 5705 5703 5700 5698 5695 5692 5689 5687 5685 5683 5679 5677 5677 5675 5673 5669 5666 5670 5672 5668 5665 5663 5659 5658 5655 5653 5651 5649 5648 5647 5645 5643 5641 5640 5639 5637 5636 5635 5633 5632 5631 5630 5628 5627 5626 5625 5623 5622 5621 5620 5619 5618 5617 5615 5613 5612 5611 5610 5609 5608 5607 5606 5605 5603 5603 5602 5601 5600 5598 5597 5596 5595 5594 5593 5592 5591
5723 5721 5719 5717 5715 5713 5711 5709 5707 5704 5702 5700 5697 5695 5692 5688 5685 5681 5680 5678 5674 5673 5671 5669 5667 5662 5661 5666 5668 5665 5664 5661 5656 5653 5650 5648 5646 5644 5642 5641 5640 5638 5636 5635 5634 5633 5632 5630 5629 5628 5626 5625 5623 5622 5620 5619 5617 5616 5615 5614 5613 5612 5611 5609 5607 5606 5604 5603 5602 5601 5600 5599 5598 5597 5596 5595 5594 5592 5591 5590 5589 5588 5586 5585 5584 5583
5721 5719 5717 5714 5713 5711 5708 5706 5704 5701 5699 5696 5694 5691 5688 5686 5680 5675 5674 5672 5669 5667 5664 5663 5660 5655 5655 5661 5662 5661 5660 5658 5653 5649 5646 5643 5641 5638 5636 5635 5634 5633 5631 5629 5629 5628 5627 5626 5624 5623 5622 5620 5619 5617 5615 5614 5612 5610 5609 5607 5606 5605 5604 5603 5601 5600 5598 5597 5596 5594 5593 5591 5590 5589 5589 5588 5587 5585 5584 5582 5581 5580 5579 5577 5577 5576
5717 5716 5715 5712 5710 5708 5705 5703 5700 5698 5696 5692 5690 5687 5685 5683 5677 5671 5669 5666 5664 5661 5657 5655 5653 5649 5649 5652 5654 5655 5654 5653 5649 5646 5642 5638 5636 5633 5630 5628 5627 5626 5625 5623 5622 5622 5621 5620 5619 5618 5616 5615 5613 5611 5610 5608 5607 5605 5603 5601 5600 5599 5597 5596 5595 5594 5592 5591 5589 5587 5586 5584 5583 5582 5581 5580 5579 5577 5576 5575 5573 5572 5571 5570 5569 5568
5712 5712 5712 5709 5707 5704 5701 5700 5697 5694 5692 5688 5686 5683 5680 5679 5673 5668 5665 5661 5659 5654 5649 5648 5645 5643 5644 5643 5646 5650 5649 5647 5644 5641 5639 5635 5632 5628 5624 5621 5619 5618 5618 5617 5616 5615 5615 5614 5613 5611 5610 5608 5607 5605 5604 5602 5600 5599 5597 5595 5594 5592 5590 5589 5587 5586 5585 5584 5582 5580 5579 5577 5575 5574 5573 5572 5571 5569 5568 5566 5565 5564 5562 5561 5560 5559
5707 5706 5706 5705 5703 5701 5698 5696 5694 5691 5688 5684 5682 5679 5675 5672 5669 5664 5659 5656 5654 5647 5641 5641 5637 5637 5638 5634 5639 5646 5643 5641 5639 5634 5633 5630 5627 5624 5619 5615 5613 5610 5609 5608 5607 5607 5607 5607 5606 5605 5603 5601 5600 5598 5596 5595 5593 5592 5590 5589 5587 5585 5583 5582 5580 5578 5577 5576 5575 5573 5571 5570 5568 5567 5565 5564 5562 5561 5560 5558 5557 5555 5554 5553 5551 5550
5702 5700 5701 5700 5698 5696 5694 5691 5689 5687 5684 5680 5677 5674 5669 5666 5663 5660 5653 5650 5648 5640 5633 5634 5632 5630 5629 5627 5632 5636 5633 5633 5632 5627 5625 5622 5620 5618 5614 5610 5606 5603 5601 5599 5598 5597 5596 5598 5598 5597 5596 5594 5592 5590 5589 5587 5585 5584 5582 5581 5579 5578 5576 5574 5572 5571 5569 5568 5567 5565 5564 5562 5560 5559 5557 5556 5554 5553 5551 5550 5548 5547 5545 5544 5543 5541
5698 5694 5695 5695 5693 5691 5689 5687 5685 5683 5679 5674 5672 5669 5664 5660 5657 5653 5648 5642 5640 5634 5626 5625 5625 5623 5621 5623 5627 5626 5622 5623 5622 5619 5616 5613 5611 5610 5607 5604 5599 5595 5593 5591 5589 5587 5586 5588 5588 5587 5587 5585 5584 5582 5580 5579 5577 5575 5574 5572 5571 5569 5568 5566 5564 5563 5561 5560 5558 5557 5555 5553 5552 5550 5548 5547 5545 5544 5542 5541 5539 5538 5537 5535 5534 5532
5694 5689 5687 5689 5688 5684 5682 5682 5680 5677 5673 5668 5666 5663 5659 5655 5650 5646 5642 5636 5632 5628 5621 5616 5615 5616 5617 5620 5621 5617 5611 5611 5610 5609 5606 5603 5601 5601 5598 5595 5591 5587 5585 5582 5580 5578 5577 5578 5578 5577 5576 5575 5574 5572 5571 5569 5568 5566 5565 5563 5562 5561 5559 5558 5556 5555 5553 5551 5549 5548 5546 5545 5543 5541 5539 5538 5536 5535 5533 5532 5530 5529 5527 5526 5524 5523
5690 5685 5681 5682 5681 5678 5677 5676 5673 5671 5667 5663 5660 5657 5652 5648 5643 5637 5634 5631 5626 5620 5616 5609 5602 5607 5616 5615 5611 5607 5601 5597 5596 5596 5595 5593 5591 5590 5588 5585 5582 5579 5576 5574 5572 5570 5569 5569 5568 5567 5566 5565 5564 5562 5561 5559 5558 5556 5555 5554 5553 5551 5550 5549 5547 5545 5544 5542 5540 5538 5537 5535 5534 5532 5530 5529 5527 5525 5524 5522 5521 5519 5518 5516 5515 5513
5684 5679 5675 5675 5674 5672 5671 5670 5666 5663 5660 5657 5653 5650 5647 5642 5635 5627 5623 5625 5622 5612 5609 5603 5591 5598 5613 5609 5600 5597 5592 5587 5586 5584 5582 5581 5580 5579 5578 5575 5573 5570 5567 5565 5563 5562 5560 5559 5558 5558 5557 5555 5554 5552 5550 5549 5548 5547 5545 5544 5543 5541 5540 5539 5537 5536 5534 5532 5531 5529 5527 5526 5524 5523 5521 5519 5518 5516 5514 5513 5511 5509 5508 5506 5505 5504
5677 5672 5668 5668 5668 5666 5665 5662 5658 5656 5653 5649 5645 5642 5639 5633 5628 5620 5612 5613 5612 5604 5602 5597 5584 5590 5603 5598 5590 5588 5583 5579 5577 5573 5571 5568 5567 5566 5566 5564 5562 5560 5557 5556 5554 5553 5551 5550 5548 5547 5546 5545 5544 5542 5540 5538 5537 5536 5535 5533 5532 5531 5530 5528 5526 5525 5524 5522 5521 5519 5517 5516 5514 5513 5511 5509 5508 5506 5504 5503 5501 5499 5498 5496 5495 5494
5671 5665 5660 5657 5658 5660 5660 5656 5651 5648 5644 5640 5637 5633 5629 5623 5619 5612 5604 5601 5598 5595 5595 5587 5577 5584 5589 5582 5580 5579 5574 5570 5566 5561 5559 5556 5553 5552 5551 5551 5550 5549 5548 5546 5545 5544 5542 5540 5539 5537 5536 5535 5534 5532 5530 5528 5526 5525 5524 5522 5521 5520 5518 5517 5515 5514 5513 5512 5510 5509 5508 5506 5504 5502 5501 5499 5498 5496 5494 5492 5491 5489 5487 5486 5485 5484
5663 5659 5653 5647 5644 5646 5649 5648 5645 5640 5634 5629 5627 5623 5619 5614 5609 5601 5596 5591 5583 5584 5588 5576 5568 5578 5578 5568 5567 5566 5563 5562 5557 5551 5548 5544 5540 5539 5538 5539 5539 5537 5537 5535 5534 5533 5532 5530 5529 5527 5526 5525 5523 5522 5520 5518 5516 5514 5513 5511 5510 5509 5507 5506 5504 5503 5502 5501 5500 5499 5497 5496 5494 5492 5490 5489 5487 5486 5484 5482 5480 5478 5477 5476 5475 5474
5656 5653 5649 5641 5636 5633 5633 5635 5632 5627 5623 5621 5618 5614 5609 5604 5599 5591 5586 5580 5572 5574 5578 5566 5559 5568 5566 5555 5555 5554 5551 5550 5547 5543 5539 5532 5529 5528 5528 5527 5527 5525 5523 5522 5521 5521 5520 5519 5518 5516 5515 5514 5512 5511 5509 5507 5506 5504 5503 5502 5500 5498 5497 5495 5494 5493 5492 5491 5490 5489 5487 5486 5484 5482 5480 5478 5477 5475 5473 5472 5470 5468 5467 5466 5465 5464
5646 5646 5644 5637 5631 5627 5625 5624 5620 5613 5610 5609 5607 5605 5600 5594 5589 5583 5575 5571 5568 5563 5560 5558 5557 5554 5546 5543 5544 5542 5540 5538 5536 5534 5529 5523 5521 5521 5519 5517 5515 5512 5511 5509 5509 5509 5508 5507 5506 5504 5504 5502 5501 5499 5498 5496 5495 5494 5493 5492 5490 5489 5487 5486 5484 5483 5482 5481 5480 5479 5477 5475 5473 5471 5470 5468 5467 5465 5463 5462 5460 5458 5457 5456 5455 5455
5636 5637 5637 5631 5624 5622 5619 5615 5610 5603 5598 5595 5592 5590 5588 5583 5578 5573 5566 5564 5563 5552 5543 5551 5555 5540 5528 5530 5532 5530 5529 5528 5525 5522 5517 5513 5513 5513 5510 5507 5504 5501 5499 5497 5496 5496 5495 5495 5494 5493 5492 5490 5489 5488 5486 5485 5484 5482 5481 5481 5479 5478 5476 5475 5474 5473 5472 5470 5469 5468 5466 5464 5462 5461 5459 5458 5457 5455 5454 5452 5450 5448 5447 5446 5446 5445
5627 5626 5627 5621 5614 5615 5612 5605 5599 5594 5589 5585 5579 5574 5572 5570 5566 5563 5558 5555 5553 5542 5533 5538 5542 5529 5519 5521 5521 5517 5516 5516 5513 5510 5504 5501 5503 5502 5499 5496 5493 5491 5488 5486 5484 5483 5482 5482 5482 5481 5479 5478 5476 5475 5474 5473 5472 5471 5470 5469 5468 5467 5465 5464 5463 5462 5461 5459 5458 5457 5455 5453 5452 5451 5449 5448 5447 5445 5444 5442 5440 5438 5437 5437 5437 5436
5617 5615 5615 5607 5602 5606 5605 5595 5587 5583 5579 5574 5568 5563 5559 5556 5553 5550 5547 5544 5540 5534 5526 5525 5525 5520 5512 5510 5510 5508 5505 5504 5502 5499 5493 5490 5491 5490 5487 5484 5482 5480 5477 5475 5473 5472 5470 5470 5469 5468 5467 5465 5464 5463 5462 5462 5460 5459 5459 5457 5456 5455 5453 5452 5451 5451 5449 5448 5447 5445 5444 5443 5442 5440 5439 5438 5436 5435 5433 5431 5430 5429 5428 5428 5427 5426
5609 5605 5604 5595 5590 5596 5596 5585 5577 5574 5568 5560 5556 5553 5548 5543 5540 5536 5533 5531 5528 5523 5518 5514 5512 5509 5504 5500 5500 5498 5495 5493 5491 5488 5482 5479 5479 5478 5475 5472 5470 5469 5467 5465 5463 5461 5460 5459 5457 5456 5455 5453 5452 5451 5450 5449 5449 5448 5447 5445 5443 5442 5441 5440 5440 5439 5437 5436 5435 5434 5433 5432 5431 5429 5428 5427 5425 5424 5422 5421 5420 5420 5419 5418 5417 5416
5602 5596 5594 5586 5579 5584 5585 5575 5567 5564 5559 5550 5543 5541 5539 5532 5527 5524 5520 5518 5515 5511 5507 5504 5499 5497 5496 5494 5491 5489 5486 5484 5481 5477 5472 5469 5468 5466 5463 5461 5459 5458 5456 5454 5453 5451 5450 5448 5447 5445 5444 5442 5440 5439 5438 5437 5437 5436 5435 5433 5431 5430 5429 5429 5428 5427 5426 5425 5424 5423 5422 5420 5419 5418 5417 5416 5414 5413 5412 5411 5411 5410 5409 5409 5408 5407
5594 5587 5584 5577 5570 5572 5573 5564 5556 5552 5548 5541 5534 5529 5526 5521 5516 5513 5509 5506 5503 5499 5495 5492 5488 5485 5484 5483 5481 5480 5478 5475 5472 5468 5462 5459 5458 5456 5452 5450 5449 5447 5446 5444 5443 5441 5439 5438 5437 5435 5433 5431 5429 5428 5426 5425 5424 5424 5423 5422 5420 5420 5419 5418 5417 5416 5415 5414 5413 5412 5411 5409 5408 5407 5406 5405 5404 5402 5402 5401 5401 5401 5400 5399 5399 5398
5587 5579 5574 5567 5559 5559 5558 5552 5545 5540 5535 5530 5524 5518 5514 5510 5505 5502 5499 5495 5492 5490 5486 5482 5478 5475 5472 5470 5468 5468 5467 5465 5462 5459 5453 5449 5447 5445 5443 5441 5438 5437 5436 5434 5432 5431 5429 5428 5427 5425 5422 5420 5418 5416 5415 5413 5412 5412 5412 5411 5410 5409 5408 5407 5406 5405 5404 5403 5402 5401 5399 5398 5397 5396 5395 5394 5393 5392 5392 5392 5391 5391 5390 5390 5389 5389
5577 5571 5565 5560 5551 5546 5545 5540 5533 5529 5525 5519 5514 5510 5507 5503 5498 5494 5491 5487 5482 5480 5478 5474 5470 5466 5464 5460 5457 5455 5455 5455 5453 5450 5444 5439 5436 5433 5432 5431 5428 5426 5425 5423 5422 5421 5418 5416 5415 5414 5412 5410 5408 5406 5404 5402 5400 5400 5400 5400 5399 5398 5397 5396 5395 5395 5394 5392 5391 5390 5388 5387 5386 5386 5385 5384 5383 5383 5383 5382 5382 5381 5380 5380 5379 5379
5569 5562 5557 5553 5546 5539 5536 5532 5525 5520 5516 5512 5507 5504 5500 5497 5493 5489 5485 5482 5476 5472 5470 5467 5463 5459 5456 5453 5449 5446 5444 5445 5446 5442 5435 5430 5427 5423 5420 5419 5418 5416 5414 5412 5410 5409 5408 5405 5403 5402 5401 5400 5398 5395 5393 5392 5390 5389 5390 5389 5388 5387 5386 5385 5385 5385 5383 5382 5381 5380 5378 5377 5376 5376 5375 5374 5374 5373 5373 5373 5372 5371 5370 5370 5370 5369
5564 5557 5551 5546 5540 5533 5529 5526 5521 5515 5510 5506 5502 5498 5493 5489 5485 5481 5476 5473 5470 5466 5462 5458 5454 5451 5448 5444 5440 5436 5433 5433 5436 5436 5428 5421 5418 5415 5410 5408 5406 5404 5402 5400 5398 5397 5395 5393 5392 5390 5388 5388 5387 5384 5381 5380 5380 5379 5379 5378 5377 5376 5376 5375 5375 5374 5373 5372 5371 5370 5368 5367 5366 5366 5365 5365 5364 5364 5364 5363 5362 5362 5361 5361 5360 5360
5558 5552 5545 5538 5534 5529 5522 5518 5513 5507 5502 5499 5496 5492 5487 5481 5477 5472 5465 5462 5462 5459 5454 5449 5444 5440 5437 5434 5430 5426 5422 5420 5424 5428 5423 5415 5410 5406 5401 5398 5395 5392 5390 5388 5386 5385 5384 5382 5380 5379 5376 5375 5374 5372 5369 5368 5368 5368 5368 5367 5366 5365 5365 5365 5364 5363 5361 5361 5360 5359 5359 5358 5357 5356 5356 5355 5355 5354 5354 5353 5352 5352 5351 5351 5351 5350
5553 5548 5541 5534 5529 5524 5517 5511 5505 5499 5494 5491 5488 5485 5480 5475 5471 5466 5458 5453 5454 5452 5445 5439 5435 5430 5426 5422 5418 5415 5412 5408 5409 5414 5414 5408 5403 5397 5391 5388 5385 5382 5378 5375 5372 5371 5371 5371 5369 5368 5365 5363 5361 5360 5358 5356 5356 5356 5356 5356 5355 5354 5354 5353 5352 5350 5350 5350 5349 5349 5348 5347 5347 5346 5346 5346 5345 5344 5343 5343 5343 5342 5342 5342 5341 5340
5550 5544 5538 5531 5524 5518 5512 5505 5500 5494 5489 5485 5480 5476 5472 5467 5463 5457 5448 5444 5445 5444 5437 5431 5427 5422 5417 5412 5407 5404 5401 5395 5392 5395 5397 5395 5392 5387 5381 5376 5373 5370 5367 5364 5360 5357 5357 5357 5356 5354 5353 5350 5348 5347 5346 5344 5343 5344 5344 5343 5343 5343 5343 5341 5340 5339 5339 5339 5338 5338 5337 5337 5336 5336 5336 5335 5335 5334 5333 5333 5333 5333 5332 5332 5331 5330
5545 5538 5532 5525 5519 5513 5507 5501 5495 5489 5484 5480 5473 5467 5462 5459 5455 5448 5440 5435 5434 5432 5428 5422 5418 5412 5407 5402 5397 5393 5391 5386 5380 5377 5378 5377 5375 5373 5369 5364 5360 5358 5354 5350 5348 5344 5342 5342 5341 5340 5338 5335 5333 5333 5332 5331 5331 5331 5331 5330 5331 5331 5330 5329 5329 5328 5328 5327 5327 5326 5326 5326 5326 5326 5325 5325 5324 5324 5323 5323 5323 5322 5322 5321 5321 5320
5537 5532 5526 5520 5514 5508 5502 5496 5490 5485 5479 5475 5470 5463 5455 5450 5445 5440 5434 5429 5424 5420 5416 5413 5408 5402 5397 5393 5389 5384 5380 5377 5372 5366 5364 5362 5359 5356 5353 5350 5346 5344 5341 5337 5334 5330 5327 5326 5326 5325 5322 5320 5318 5317 5316 5316 5317 5318 5317 5317 5318 5318 5317 5317 5317 5316 5316 5316 5316 5316 5315 5315 5315 5314 5314 5314 5314 5313 5313 5313 5313 5312 5312 5311 5311 5310
5529 5524 5519 5513 5508 5503 5496 5488 5482 5478 5473 5466 5461 5458 5452 5444 5436 5431 5426 5421 5416 5410 5405 5402 5399 5394 5388 5384 5381 5377 5372 5368 5364 5359 5355 5351 5347 5343 5339 5336 5332 5329 5326 5323 5320 5317 5313 5312 5311 5309 5307 5304 5302 5301 5301 5300 5301 5302 5303 5303 5304 5304 5304 5304 5304 5304 5304 5304 5304 5305 5304 5304 5303 5303 5303 5303 5303 5303 5303 5303 5303 5302 5302 5301 5301 5300
5523 5517 5512 5506 5500 5495 5489 5482 5475 5470 5466 5458 5450 5445 5441 5436 5429 5423 5418 5414 5411 5406 5399 5394 5390 5385 5378 5373 5370 5368 5363 5359 5354 5350 5346 5342 5339 5334 5330 5326 5321 5317 5314 5311 5308 5305 5301 5299 5298 5296 5293 5290 5288 5286 5285 5285 5285 5286 5286 5288 5289 5289 5290 5290 5290 5291 5292 5292 5293 5293 5292 5292 5292 5292 5292 5292 5291 5292 5292 5292 5293 5293 5292 5292 5291 5290
5517 5511 5505 5500 5495 5489 5482 5475 5469 5464 5460 5453 5445 5437 5433 5429 5423 5418 5412 5407 5404 5400 5394 5388 5383 5378 5372 5365 5361 5357 5353 5347 5343 5339 5335 5332 5329 5326 5321 5318 5313 5308 5305 5301 5298 5295 5292 5289 5287 5285 5283 5280 5277 5275 5274 5272 5272 5272 5272 5273 5273 5274 5275 5276 5277 5278 5279 5279 5280 5280 5280 5280 5280 5280 5280 5280 5280 5281 5282 5282 5282 5283 5283 5282 5282 5281
5512 5506 5499 5494 5490 5485 5478 5471 5463 5457 5452 5447 5439 5432 5427 5423 5417 5412 5406 5400 5395 5391 5386 5381 5376 5372 5366 5359 5353 5349 5344 5338 5333 5329 5325 5321 5319 5316 5313 5309 5306 5301 5296 5293 5289 5286 5284 5281 5278 5276 5274 5272 5269 5267 5266 5264 5263 5262 5262 5262 5262 5262 5263 5263 5264 5265 5266 5267 5267 5267 5268 5268 5268 5268 5269 5269 5270 5271 5272 5272 5273 5273 5273 5273 5272 5272
5506 5500 5494 5488 5482 5478 5474 5468 5461 5453 5446 5440 5434 5428 5423 5417 5411 5404 5399 5393 5388 5383 5378 5373 5368 5363 5358 5351 5345 5341 5337 5331 5325 5321 5318 5313 5310 5308 5305 5301 5298 5294 5289 5285 5281 5278 5275 5273 5271 5269 5267 5265 5263 5261 5259 5258 5256 5255 5254 5254 5254 5254 5254 5254 5254 5255 5255 5256 5256 5257 5257 5257 5258 5258 5259 5260 5261 5262 5262 5263 5263 5264 5264 5264 5263 5263
5499 5493 5487 5482 5476 5470 5465 5461 5457 5453 5446 5437 5428 5422 5418 5413 5407 5400 5394 5388 5382 5377 5371 5366 5360 5354 5348 5343 5336 5331 5327 5322 5316 5312 5309 5306 5303 5300 5297 5294 5290 5287 5283 5279 5275 5271 5268 5266 5263 5262 5260 5259 5257 5256 5254 5252 5251 5250 5249 5248 5247 5247 5247 5247 5247 5247 5247 5247 5248 5248 5248 5249 5249 5250 5251 5252 5253 5253 5254 5254 5255 5255 5255 5255 5254 5254
5493 5487 5480 5475 5470 5464 5459 5453 5450 5449 5447 5439 5428 5419 5412 5406 5401 5396 5390 5383 5377 5371 5365 5360 5355 5347 5340 5335 5329 5324 5319 5314 5308 5303 5299 5297 5295 5292 5290 5287 5283 5279 5276 5272 5269 5265 5262 5260 5258 5256 5255 5254 5252 5251 5250 5248 5246 5245 5244 5243 5242 5241 5241 5241 5240 5240 5240 5240 5241 5241 5241 5242 5243 5243 5244 5244 5245 5245 5246 5246 5247 5247 5246 5246 5246 5246
5487 5481 5474 5468 5463 5459 5453 5447 5440 5435 5434 5431 5423 5415 5408 5400 5393 5388 5383 5376 5370 5364 5358 5354 5350 5343 5336 5329 5323 5318 5312 5307 5302 5297 5292 5289 5287 5284 5282 5280 5276 5272 5269 5265 5262 5260 5257 5254 5253 5251 5250 5249 5248 5247 5245 5244 5242 5241 5240 5238 5237 5236 5236 5235 5235 5235 5235 5235 5235 5235 5235 5236 5236 5237 5237 5237 5238 5238 5238 5239 5239 5239 5238 5238 5238 5238
5481 5475 5469 5462 5457 5451 5445 5439 5433 5426 5422 5418 5413 5407 5401 5393 5386 5381 5375 5369 5363 5357 5351 5346 5341 5337 5331 5325 5318 5312 5306 5300 5295 5291 5287 5284 5281 5278 5275 5273 5269 5266 5263 5260 5257 5255 5252 5250 5248 5247 5246 5245 5244 5243 5241 5240 5238 5237 5236 5234 5233 5232 5231 5230 5230 5230 5229 5229 5229 5230 5230 5230 5230 5231 5231 5231 5231 5231 5231 5231 5231 5231 5230 5230 5230 5230